Location: ??????????
(54.4061°N, 22.6114°E)
Time: 15:07:48
(UTC+00:00)

Cosmos 1408 Rocket - Pass Details

Date: 23 October 2019
Orbit: 600 x 631 km, 82.6° (Epoch: 12 November)

Event Time Altitude Azimuth Distance (km) Brightness Sun altitude
Rises 17:48:33 0° 348° (NNW) 2,867 7.3 -23.0°
Reaches altitude 10° 17:50:46 10° 349° (N) 1,960 6.4 -23.3°
Enters shadow 17:54:56 82° 10° (N) 618 3.4 -23.9°
